User: anonymous   Login
Location: Unspecified
(0.0000°N, 0.0000°E)
Time: 07:16:55
(UTC+00:00)
Language:

UNISAT 2 - Orbit

View from above orbital plane
View from above orbital plane
View from above satellite
View from above satellite

Ground track
Ground track

The orbit data is extracted from the following two-line orbital elements,

1 27608U 02058D   17178.92598625 -.00000049 +00000-0 +12628-4 0  9995
2 27608 064.5559 019.4926 0016424 054.2490 306.0138 14.77815574782132
Epoch (UTC): 27 June 2017 22:13:25
Eccentricity: 0.0016424
inclination: 64.5559°
perigee height: 625 km
apogee height: 648 km
right ascension of ascending node: 19.4926°
argument of perigee: 54.2490°
revolutions per day: 14.77815574
mean anomaly at epoch: 306.0138°
orbit number at epoch: 78213

The dashed part of the orbit path shows where the satellite is in the earth's shadow,  

DLR